This demonstration page uses our WeatherBlox Daily Observations layout. Learn more.

Left ArrowRight Arrow

36.19886, -115.1175

Hourly Observations for January 8, 2022

Temp ( °F °C ) Dew Point ( °F °C ) Humidity (%) Winds ( mph kmh ) Pressure ( in mb ) Visibility ( mi km ) Precip ( " mm )
12:53 am 00:53 Clear 51 10.6 29 -1.7 43 43 NNW 9 15 29.79 1009 10 16 0.00 0.00
1:53 am 01:53 Clear 52 11.1 30 -1.1 43 43 NNW 9 15 29.84 1010 10 16 0.00 0.00
2:53 am 02:53 Clear 52 11.1 28 -2.2 40 40 NW 13 20 29.85 1011 10 16 0.00 0.00
3:53 am 03:53 Clear 49 9.4 29 -1.7 46 46 N 6 9 29.88 1012 10 16 0.00 0.00
4:53 am 04:53 Clear 51 10.6 27 -2.8 39 39 NNW 15 24 29.90 1013 10 16 0.00 0.00
5:53 am 05:53 Clear 51 10.6 26 -3.3 38 38 NW 12 19 29.95 1014 10 16 0.00 0.00
6:53 am 06:53 Sunny 49 9.4 27 -2.8 43 43 NW 13 20 29.97 1015 10 16 0.00 0.00
7:53 am 07:53 Sunny 51 10.6 27 -2.8 39 39 WNW 12 19 29.99 1016 10 16 0.00 0.00
8:53 am 08:53 Sunny 56 13.3 28 -2.2 34 34 N 17 28 30.03 1017 10 16 0.00 0.00
9:53 am 09:53 Sunny 59 15 27 -2.8 29 29 NNW 12 19 30.06 1018 10 16 0.00 0.00
10:53 am 10:53 Sunny 62 16.7 25 -3.9 24 24 NNW 13 20 30.06 1018 10 16 0.00 0.00
11:53 am 11:53 Sunny 64 17.8 25 -3.9 23 23 NNW 16 26 30.04 1017 10 16 0.00 0.00
12:53 pm 12:53 Sunny 65 18.3 23 -5 20 20 NNW 14 22 30.05 1018 10 16 0.00 0.00
1:53 pm 13:53 Sunny 65 18.3 22 -5.6 19 19 NW 15 24 30.05 1018 10 16 0.00 0.00
2:53 pm 14:53 Sunny 64 17.8 21 -6.1 19 19 NNW 15 24 30.07 1018 10 16 0.00 0.00
3:53 pm 15:53 Sunny 64 17.8 20 -6.7 18 18 NW 17 28 30.09 1019 10 16 0.00 0.00
4:53 pm 16:53 Clear 61 16.1 22 -5.6 22 22 NW 12 19 30.12 1020 10 16 0.00 0.00
5:53 pm 17:53 Clear 58 14.4 22 -5.6 25 25 N 5 7 30.15 1021 10 16 0.00 0.00
6:53 pm 18:53 Clear 57 13.9 21 -6.1 25 25 NNW 9 15 30.19 1022 10 16 0.00 0.00
7:53 pm 19:53 Clear 56 13.3 20 -6.7 24 24 NW 9 15 30.21 1023 10 16 0.00 0.00
8:53 pm 20:53 Clear 54 12.2 21 -6.1 28 28 N 7 11 30.24 1024 10 16 0.00 0.00
9:53 pm 21:53 Clear 50 10 20 -6.7 30 30 WNW 5 7 30.27 1025 10 16 0.00 0.00
10:53 pm 22:53 Clear 48 8.9 20 -6.7 33 33 WNW 7 11 30.29 1026 10 16 0.00 0.00
11:53 pm 23:53 Clear 50 10 20 -6.7 30 30 NW 9 15 30.30 1026 10 16 0.00 0.00

Powered by AerisWeather